RH
7 6 6 6 6 6 6 5 5 5 5 5 5 5 5 5 5 5 5 4 4 4 4 4 3 3 3 3 3 3 4 5 7 10 14 17 18 21 23 24 26 27 29 31 32 35 35 36 38 40 42 43 42 38 33 31 31 23 20 26 30 38 55 57 34 24 35 44 47 44 42 43 45 46 50 50 46 46 50 61 69 70 71 72 67 59 49 42 37 33 32 31 32 31 30 29 28
6 6 5 5 5 5 5 5 5 4 4 4 4 4 4 4 4 4 4 4 4 4 4 4 4 3 3 3 3 3 4 6 8 11 15 17 21 24 26 28 31 32 32 32 34 36 36 38 41 44 45 45 41 38 36 33 33 28 24 30 35 42 59 61 40 27 37 47 49 46 44 45 46 49 54 54 50 49 52 60 73 79 78 75 73 68 58 49 41 36 35 35 36 34 33 32 31
6 5 5 5 4 4 4 4 4 3 3 3 3 4 4 4 4 4 4 4 4 4 4 4 4 4 3 3 3 4 5 7 9 13 17 21 24 27 29 30 31 31 29 29 32 34 36 38 40 43 43 42 40 38 38 35 35 30 26 34 41 48 62 63 44 32 39 49 50 48 47 49 50 53 57 57 53 51 54 60 73 81 82 80 78 77 70 58 47 40 38 37 38 37 36 35 34
5 5 4 4 4 4 3 3 3 2 2 2 2 3 3 3 3 4 3 4 4 4 4 4 4 4 3 4 3 5 7 8 11 16 21 24 27 29 30 30 29 27 28 30 33 36 37 38 39 41 42 41 41 40 39 37 35 29 26 38 50 56 66 63 45 35 42 51 51 50 50 53 55 58 60 60 58 55 55 61 72 80 83 83 81 82 81 72 56 44 41 40 40 40 38 37 37
4 4 4 4 3 3 3 2 2 1 1 2 2 2 2 2 3 3 3 3 3 4 4 4 4 4 4 4 4 6 8 10 14 18 23 25 27 30 29 28 27 28 32 36 40 41 40 39 41 42 43 43 42 41 39 39 33 24 28 46 59 65 71 64 45 38 45 51 51 50 53 56 58 62 64 63 62 60 58 61 72 82 85 86 84 83 86 88 73 52 43 44 44 42 41 40 40
4 4 3 3 3 3 2 2 2 1 1 1 1 2 2 2 2 2 3 3 3 3 3 4 4 3 4 4 5 7 9 13 18 21 25 28 29 29 29 28 30 35 40 43 45 44 42 41 43 44 45 44 42 41 41 40 29 22 36 56 67 75 78 63 45 41 47 51 51 52 54 57 61 66 67 65 65 65 63 64 71 83 88 87 88 87 87 93 90 70 52 47 48 46 45 42 41
4 3 3 3 2 2 2 2 1 1 1 1 1 1 1 1 2 2 2 2 3 3 3 4 4 4 4 4 7 9 12 15 20 23 26 29 31 31 30 31 35 42 46 47 46 43 42 42 44 46 47 45 43 43 43 35 22 23 46 66 73 82 82 64 45 43 49 52 50 52 56 57 62 67 69 68 67 68 67 67 71 84 89 84 87 93 93 93 93 87 70 54 49 52 52 46 42
3 3 3 3 3 2 2 2 1 1 1 1 1 1 1 1 1 2 2 2 3 3 4 4 4 4 4 5 9 11 15 18 21 23 25 28 29 31 33 36 41 45 48 47 44 42 42 43 45 47 47 47 44 44 39 23 17 32 59 76 81 87 82 61 45 46 52 51 50 52 57 59 63 68 72 72 70 71 72 72 75 84 87 79 83 92 98 98 95 93 85 70 57 56 61 58 48
3 3 3 3 2 2 2 2 1 1 1 1 1 1 1 1 1 1 2 2 2 3 4 4 4 5 5 7 11 13 17 21 22 24 25 27 29 31 35 39 44 47 48 46 43 43 43 43 45 47 46 45 43 41 31 17 22 48 75 87 89 88 76 57 49 50 49 47 48 51 58 62 66 69 73 76 73 74 76 78 80 85 87 81 85 90 94 100 99 96 92 85 71 62 67 69 60
3 3 3 3 2 2 2 2 2 1 2 1 1 1 1 1 1 1 2 2 3 4 4 5 5 6 8 10 15 18 21 26 28 29 28 29 31 32 37 42 46 48 46 44 43 43 44 45 46 46 44 41 38 34 25 20 38 66 84 91 90 84 72 59 52 44 38 43 46 49 58 63 69 72 76 79 75 78 81 82 82 83 83 82 91 97 96 99 100 99 96 94 86 73 71 75 70
3 3 3 3 2 2 2 2 2 2 2 2 2 1 1 1 1 2 2 3 3 4 5 5 7 9 12 15 22 24 26 31 33 32 30 30 33 37 40 43 44 43 42 41 41 41 43 45 44 42 38 34 32 30 27 33 56 77 86 91 89 82 69 54 42 31 33 43 44 46 57 66 71 75 79 80 77 81 84 84 82 82 79 76 89 100 101 100 100 99 95 96 96 87 80 78 74
4 3 3 3 2 2 2 3 2 2 2 2 2 1 2 1 1 2 2 4 3 5 6 6 11 15 18 22 25 28 30 33 34 32 29 32 36 39 40 39 37 35 35 36 37 38 38 39 38 34 30 28 29 30 35 48 68 82 89 91 84 72 56 43 35 30 35 42 42 45 58 70 73 77 84 85 82 82 83 84 80 80 80 74 82 91 95 99 101 99 92 93 100 98 90 81 74
4 3 3 2 2 2 2 3 2 2 2 2 2 2 2 2 2 2 3 5 4 6 7 8 15 18 24 31 29 31 37 35 34 29 27 34 36 34 34 32 31 30 30 30 31 32 30 29 26 23 24 25 25 30 43 59 76 88 90 83 73 61 47 37 33 32 34 36 39 45 59 72 74 80 92 93 86 80 81 85 81 77 77 77 79 81 89 98 101 100 96 96 100 100 96 85 74
4 3 3 3 2 2 2 3 2 2 2 2 2 2 2 2 3 3 4 5 6 7 9 14 19 23 30 39 42 43 46 42 36 31 29 35 33 30 31 30 29 27 25 23 21 20 19 18 16 21 26 26 29 41 57 73 85 88 84 75 65 51 36 25 21 24 27 28 33 46 64 72 73 83 96 97 88 82 83 85 82 77 75 77 80 84 93 100 100 100 98 98 99 100 99 91 76
4 3 3 2 2 2 3 3 2 2 2 3 2 3 3 3 3 4 6 6 9 9 13 22 26 38 47 47 52 51 50 46 39 35 32 32 30 29 28 26 25 21 20 17 14 12 12 13 18 28 30 31 45 60 72 83 89 87 82 73 58 40 24 15 12 13 15 18 28 51 68 68 74 88 97 97 88 83 87 88 85 81 78 79 85 90 95 100 100 100 98 99 100 100 101 95 77
4 3 3 2 2 2 3 3 2 2 3 3 3 3 3 4 4 5 6 7 14 16 21 35 37 49 60 56 57 53 49 46 40 38 34 32 28 26 25 22 21 20 20 17 15 14 13 16 22 30 36 45 60 73 80 86 89 88 82 70 55 38 22 14 11 11 11 16 35 61 72 68 75 90 95 93 84 81 86 89 88 84 81 85 91 93 96 98 99 100 98 99 100 99 101 96 77
3 3 3 2 2 2 3 4 2 3 3 3 3 4 4 4 5 6 7 9 20 30 36 44 42 46 56 58 58 54 51 48 43 39 35 31 26 24 22 20 20 20 21 21 23 24 22 22 24 31 46 59 65 71 79 86 89 85 78 68 56 41 25 15 11 14 15 23 48 67 68 64 74 87 93 89 83 84 87 87 87 86 88 92 95 98 100 95 96 100 93 95 101 99 101 97 76
3 3 2 2 2 3 4 3 2 3 3 4 4 4 4 5 6 6 8 12 25 42 47 48 46 46 51 54 54 53 51 48 44 39 35 31 26 24 22 21 21 21 23 22 28 38 37 32 35 49 65 69 65 67 76 83 85 80 77 70 59 43 28 17 12 18 23 31 46 52 51 60 76 86 87 86 87 89 86 82 82 88 94 97 98 100 101 92 93 96 86 92 102 99 101 98 78
4 3 3 3 3 3 4 3 3 2 3 3 4 4 5 6 7 7 9 14 27 47 53 50 50 49 49 50 49 49 47 44 41 37 35 31 27 25 22 22 22 23 23 22 40 61 58 44 40 53 68 67 63 67 72 73 75 79 81 74 61 44 28 16 12 19 28 34 36 36 39 50 71 83 83 84 87 85 79 76 80 91 98 100 100 100 101 95 92 88 86 97 102 98 101 100 84
4 3 3 3 3 4 3 4 3 2 3 3 4 5 6 8 8 9 12 15 22 37 46 47 48 47 46 47 46 44 42 40 38 36 36 32 27 24 23 23 22 24 21 31 68 87 74 60 51 49 54 53 53 58 58 60 71 83 84 73 59 42 27 17 14 20 27 31 32 34 37 46 71 88 86 82 80 80 79 80 88 95 99 99 100 100 99 95 89 85 88 93 96 101 101 96 86
4 3 4 4 4 4 3 4 4 3 3 4 5 5 7 8 9 12 17 21 23 26 34 40 43 44 43 42 43 42 40 40 37 36 35 31 27 24 23 22 20 21 18 35 72 88 81 75 68 61 58 55 52 51 52 63 81 90 83 68 53 36 25 20 20 24 27 32 36 37 38 49 70 81 79 77 81 85 82 86 96 97 96 99 101 102 96 89 86 85 84 86 96 101 90 80 76
4 4 4 4 4 5 5 5 4 3 4 4 6 6 7 8 11 18 22 26 28 28 33 37 40 41 40 39 40 39 39 38 36 35 33 29 26 23 21 20 24 26 20 28 54 77 85 81 75 75 75 70 57 54 68 85 96 91 73 57 45 30 23 23 24 25 24 29 36 38 38 43 55 65 70 76 86 88 83 88 96 95 96 99 98 98 94 88 86 85 86 92 98 92 76 68 67
4 4 3 4 4 6 6 6 6 4 6 6 6 8 9 8 14 24 29 32 34 35 37 40 42 43 41 39 38 38 37 36 35 33 31 27 24 22 23 29 48 58 40 29 41 61 78 78 76 82 87 83 68 68 85 94 91 77 60 53 43 27 22 23 21 17 17 26 39 44 44 44 48 59 66 74 85 86 82 87 93 95 97 96 92 92 93 91 88 89 95 97 91 81 69 66 68
4 4 4 4 5 6 6 7 8 7 9 8 9 12 11 12 20 28 35 41 43 43 44 46 47 46 44 40 37 36 35 34 33 31 28 25 24 25 28 34 55 70 53 37 38 45 69 84 83 85 89 88 81 80 84 82 77 67 60 56 42 28 27 32 29 23 25 36 52 62 65 64 63 71 77 80 81 79 79 85 93 96 96 94 91 89 90 90 91 95 97 89 79 72 66 67 73
4 4 4 4 6 7 5 8 11 10 12 11 14 19 15 16 25 31 40 48 48 48 51 52 51 48 45 42 38 36 34 32 31 29 26 24 26 26 24 25 38 54 53 50 48 42 60 83 84 82 82 78 76 75 72 71 70 68 65 57 42 34 37 44 45 43 46 52 59 72 83 82 78 83 90 87 80 75 80 90 97 96 95 95 91 86 86 91 97 96 87 76 70 66 64 71 76
5 5 5 5 6 7 6 10 13 12 14 14 22 29 20 19 29 37 44 50 50 51 53 53 53 51 47 45 41 37 34 31 29 28 26 26 29 28 22 23 30 39 48 57 61 57 60 70 70 68 69 68 66 65 64 66 68 69 68 59 46 40 43 50 56 62 68 68 68 81 93 91 86 87 90 92 91 88 92 98 99 98 98 94 87 84 90 97 97 88 77 71 67 62 58 57 56
6 6 6 6 7 8 8 13 15 14 15 16 27 37 28 23 33 43 48 52 53 55 55 54 54 52 49 47 42 38 34 31 30 29 29 28 30 30 25 30 39 40 45 52 55 57 58 57 54 58 67 66 61 60 63 67 70 71 69 64 58 55 54 55 65 82 86 82 83 88 93 94 93 90 90 97 99 98 100 97 94 99 97 88 85 90 96 95 87 79 73 70 64 57 48 40 41
7 7 8 8 8 9 9 13 16 16 18 18 25 39 37 32 40 49 51 55 57 58 57 55 54 52 50 46 42 39 35 32 32 29 27 28 32 33 25 32 53 61 60 62 60 55 54 52 53 63 69 61 53 53 61 71 73 72 69 67 73 75 69 63 71 89 94 93 94 92 91 94 92 86 88 96 98 97 98 96 95 97 93 88 91 94 91 84 79 76 73 69 61 51 40 38 53
8 9 10 10 9 10 10 13 17 18 21 19 21 33 43 48 51 53 54 58 61 61 59 57 54 52 48 45 42 39 37 33 30 26 23 25 33 37 30 28 54 82 85 80 74 65 66 72 75 74 66 55 47 45 61 80 76 74 76 71 76 82 75 72 80 87 89 88 88 90 92 92 88 85 88 95 97 95 96 99 99 95 93 95 95 90 84 79 77 75 72 66 54 44 38 43 63
11 12 12 11 11 12 11 12 17 20 23 21 19 24 39 55 59 57 58 59 61 62 61 59 55 52 49 46 44 40 37 31 25 22 17 24 36 40 38 32 45 79 97 95 87 80 87 93 85 69 57 51 44 41 58 74 67 65 75 70 72 83 78 74 82 86 86 82 76 83 93 94 93 93 92 96 99 98 99 101 98 95 97 100 97 89 83 78 75 73 69 60 45 43 53 65 77
13 14 14 13 14 15 13 13 16 20 23 22 21 19 27 44 55 60 62 61 61 62 61 60 58 56 52 48 46 40 32 25 23 19 17 33 48 46 45 42 41 57 75 87 91 90 91 85 71 58 51 45 45 51 52 56 64 66 68 63 64 82 83 77 82 82 82 81 75 80 87 92 97 96 93 96 100 100 100 100 97 98 99 101 98 90 82 76 72 69 62 52 41 47 68 82 87
12 13 14 15 16 18 17 17 17 19 22 22 22 20 21 30 40 54 66 66 63 62 61 61 59 57 54 51 46 37 29 26 24 18 24 49 60 52 47 45 42 43 49 61 71 74 72 66 58 52 48 41 46 65 60 48 59 63 61 60 57 65 70 75 80 72 69 76 78 80 82 86 92 89 88 93 96 97 99 99 99 100 100 97 91 82 76 71 68 63 56 49 41 47 63 73 85
11 11 16 21 23 22 22 22 20 20 21 21 22 22 22 24 27 39 56 65 67 66 63 61 60 57 56 54 46 38 33 34 29 20 33 56 57 52 51 47 45 43 42 45 48 50 52 53 52 47 45 39 39 62 74 59 51 49 50 51 47 45 47 55 64 61 67 80 87 87 83 82 82 77 78 85 89 93 98 101 99 97 92 85 78 71 69 65 62 59 55 49 42 47 55 64 86
11 12 18 25 28 27 26 27 24 22 22 21 21 22 24 25 24 27 36 47 55 61 63 63 63 61 58 55 47 40 38 40 33 25 40 57 54 53 52 48 47 44 41 40 39 40 40 42 44 43 43 39 35 47 62 56 43 39 40 40 38 37 35 38 51 64 78 90 97 96 86 79 75 69 69 78 86 93 99 99 94 88 82 77 73 68 64 62 62 59 54 50 49 54 54 62 89
14 16 19 25 29 29 29 30 29 26 25 22 21 22 24 26 26 26 27 30 34 42 51 56 60 62 61 59 53 45 42 46 37 27 43 54 52 55 51 46 46 42 38 35 34 34 34 34 35 38 40 40 40 43 44 38 29 27 27 31 34 35 34 35 46 66 84 94 99 95 81 71 67 65 68 77 87 93 96 96 92 88 84 81 75 67 64 64 61 55 51 51 55 58 56 65 90
17 21 27 30 31 33 33 32 32 30 27 25 23 22 23 25 26 26 26 27 27 30 35 41 47 51 56 59 60 56 50 51 43 33 44 50 47 51 48 46 45 39 35 30 28 27 28 31 30 34 39 40 41 42 41 35 28 24 21 22 28 34 36 34 39 57 77 87 87 80 68 61 61 63 69 75 82 88 92 93 92 89 84 78 71 63 63 61 53 47 46 47 51 56 55 61 83
19 24 32 35 32 36 39 35 35 34 30 28 26 23 23 24 26 26 26 26 26 26 27 29 32 34 39 43 51 59 57 56 49 37 43 48 44 46 45 44 42 38 35 30 27 26 26 30 31 33 37 37 37 38 39 39 34 30 25 22 24 30 35 34 36 47 61 66 63 60 58 60 63 64 68 72 78 84 87 86 83 76 67 61 57 56 59 54 46 43 45 45 46 51 49 52 78
20 23 28 30 29 32 36 38 41 39 33 32 29 25 24 24 25 26 26 26 25 26 25 25 25 25 26 28 33 44 48 51 45 34 40 47 43 43 42 41 41 39 37 32 29 27 27 30 32 33 34 32 34 37 40 42 40 34 28 27 27 30 34 35 36 39 42 41 45 56 63 66 67 66 69 73 76 77 73 67 58 48 44 45 47 49 50 43 37 38 45 47 43 41 38 45 77
17 21 23 25 28 29 30 34 42 44 39 36 34 30 27 26 26 26 25 25 25 25 24 24 24 24 24 24 26 30 33 36 33 27 40 49 44 43 40 37 40 40 38 35 31 29 29 31 31 32 33 30 33 39 42 42 42 37 31 30 32 34 36 35 35 35 34 37 49 64 69 67 67 68 71 73 70 64 53 43 35 31 28 30 34 34 33 29 26 27 36 45 42 33 28 35 63
14 21 23 24 27 29 30 31 36 43 44 40 38 35 32 29 27 26 25 25 25 24 24 23 24 23 24 25 26 27 27 28 25 23 39 48 42 43 41 37 41 44 42 38 33 31 30 30 31 30 29 29 34 41 45 45 43 38 34 34 36 39 39 38 37 35 37 48 62 70 69 66 66 67 67 65 57 47 36 29 33 38 29 20 20 21 20 20 20 20 24 35 39 33 28 31 46
16 21 24 25 28 29 32 35 34 38 44 43 40 38 37 33 28 27 26 25 25 24 23 23 23 23 23 24 25 25 24 24 22 24 37 43 39 45 46 42 45 48 47 41 36 32 30 28 28 28 27 28 36 44 50 52 48 43 39 38 39 41 43 44 44 44 48 58 67 70 67 64 62 60 57 54 47 40 38 37 42 47 39 28 22 17 15 16 18 20 20 23 31 34 31 29 35
18 24 27 30 35 34 35 39 37 34 39 44 43 40 38 35 30 28 27 26 25 24 23 22 22 22 22 23 23 22 23 22 22 24 34 40 42 49 50 47 50 51 49 44 38 34 30 28 26 26 25 27 37 49 54 55 53 50 46 43 42 43 45 47 50 54 58 62 65 67 66 62 58 52 49 49 48 50 54 55 55 54 50 45 38 30 23 17 16 19 19 20 28 33 32 29 31
21 31 37 36 38 39 38 38 37 35 35 40 43 41 38 36 33 30 28 27 26 24 23 22 22 22 21 22 22 23 22 21 21 23 28 37 44 48 48 50 54 53 50 45 41 37 33 29 25 24 24 27 38 49 54 54 52 50 49 49 51 51 52 53 56 60 63 64 65 65 64 61 56 51 51 54 55 59 61 59 58 56 53 51 48 44 37 30 24 22 21 23 28 32 32 31 33
29 39 41 38 38 40 38 34 36 36 33 35 41 43 41 38 36 34 31 29 28 25 24 23 22 21 20 21 21 22 22 21 22 23 27 36 44 46 47 52 55 52 50 46 42 40 35 29 26 23 25 32 44 52 53 53 51 50 53 56 59 60 60 61 63 65 65 65 64 63 64 66 65 62 63 62 60 60 58 55 54 52 50 48 46 45 44 41 36 29 25 27 32 38 39 38 43
36 41 39 39 40 41 40 35 35 34 31 33 40 43 43 40 38 38 35 32 30 28 25 23 22 21 21 21 21 21 22 23 24 26 31 38 46 49 50 53 53 50 49 47 45 42 35 31 27 26 34 47 55 55 52 51 52 54 58 60 61 61 61 63 66 68 68 67 67 70 75 76 73 69 65 61 57 55 52 50 48 45 44 44 42 42 43 44 41 34 28 30 34 37 36 37 49
39 39 40 41 41 44 46 41 37 34 30 31 37 41 42 40 37 38 39 37 34 31 27 24 23 23 22 21 23 23 23 25 27 30 35 42 49 52 50 50 51 50 49 50 52 49 41 35 30 31 45 60 61 53 47 48 53 58 61 61 60 60 61 64 67 69 69 70 74 80 80 75 70 66 62 58 56 53 51 48 45 43 42 41 40 38 38 40 38 32 28 30 31 28 26 28 37
38 40 43 43 43 46 48 46 43 40 33 31 37 39 40 40 36 36 38 39 38 34 31 30 29 30 30 30 29 28 26 29 34 37 39 45 50 47 44 46 48 48 51 55 60 63 56 43 35 38 55 65 60 50 46 48 55 60 61 61 62 64 67 69 69 69 69 71 78 83 78 75 76 75 69 63 59 53 50 47 43 41 39 38 38 36 34 35 34 31 30 33 32 28 29 32 31
36 41 44 44 44 46 47 47 47 44 37 35 38 38 37 38 35 33 35 37 38 34 34 38 39 41 43 40 36 33 31 33 40 44 43 46 48 44 43 44 46 51 57 62 66 70 66 49 35 40 55 63 57 49 48 51 56 58 58 61 66 70 73 73 70 69 70 72 80 84 82 82 84 81 73 64 56 49 45 44 41 39 37 36 36 34 32 31 29 29 31 35 39 38 38 39 34
40 42 44 45 45 46 47 46 46 44 40 38 39 39 38 36 33 32 33 35 35 34 37 41 43 47 48 45 41 38 35 37 42 43 43 45 45 44 47 46 49 58 65 69 69 72 68 48 33 39 52 58 54 50 50 52 53 53 55 61 69 72 70 67 64 65 68 72 78 83 84 83 80 77 71 58 48 44 42 41 40 37 35 33 33 32 31 29 27 27 28 33 40 42 39 35 31
45 45 45 47 47 46 46 45 45 44 44 43 42 42 42 36 32 31 30 33 34 33 38 43 45 48 46 43 45 45 41 41 43 44 43 45 44 44 47 48 53 60 67 71 71 74 69 46 33 43 55 57 55 52 51 51 51 51 56 65 71 69 62 58 57 60 67 74 78 81 80 79 79 74 62 49 41 39 38 37 38 37 35 33 31 30 29 29 28 27 27 29 33 34 30 27 27
46 47 47 47 46 46 46 48 49 47 45 44 44 44 42 35 32 31 29 31 34 35 41 45 45 46 45 44 47 47 46 45 45 47 47 48 49 48 48 50 53 57 65 72 71 73 71 53 43 52 60 60 56 54 52 51 52 54 59 65 66 62 57 55 57 61 67 72 76 79 79 78 76 67 53 42 35 31 29 29 31 33 34 33 32 30 29 31 32 32 33 33 34 35 33 33 33
50 46 46 48 47 48 50 52 53 51 48 45 44 44 40 34 32 31 29 31 34 38 45 47 46 46 47 48 51 49 49 49 48 49 51 52 54 53 52 53 53 53 61 68 69 71 70 62 60 63 63 62 58 54 52 52 53 54 55 56 56 55 56 57 60 64 69 73 76 77 75 71 66 55 44 37 32 32 34 36 35 33 33 33 33 32 31 32 33 31 30 29 29 31 31 32 34
56 54 53 54 56 58 60 62 59 55 52 48 44 42 39 36 33 31 29 31 36 43 51 52 48 48 50 51 53 53 51 52 52 52 54 55 56 55 54 54 53 53 59 65 67 69 69 68 72 71 66 65 61 55 54 54 56 56 54 52 50 52 57 61 63 64 67 71 73 69 62 57 55 49 43 41 42 45 44 40 38 38 36 35 34 33 33 32 31 28 26 25 25 25 26 26 28
59 71 70 64 68 69 68 70 67 60 56 51 44 40 38 36 34 33 30 30 38 48 57 59 52 49 50 51 53 55 55 56 56 56 55 55 56 56 55 55 55 55 59 65 68 71 72 72 75 74 69 67 63 57 56 59 62 62 60 56 53 55 59 62 61 60 62 64 65 64 63 63 63 61 58 54 50 45 37 32 35 39 40 39 37 35 34 33 31 30 29 28 28 28 28 28 29
58 75 80 77 82 83 79 75 69 65 62 54 45 40 38 37 36 36 34 32 41 54 62 64 59 52 50 50 52 55 56 58 61 61 60 59 58 55 53 54 55 56 59 64 65 69 74 72 71 74 73 71 65 60 60 65 68 68 67 63 59 56 53 48 44 44 48 54 58 63 68 71 72 71 65 54 43 34 28 29 34 38 41 42 40 37 35 35 35 36 35 35 35 35 35 35 38
62 70 73 75 80 85 89 86 79 75 68 55 44 37 35 36 36 39 41 37 43 60 67 67 65 61 56 54 55 57 57 60 63 63 62 61 59 55 52 51 52 53 56 60 61 65 74 74 70 76 81 77 71 66 67 73 77 76 74 71 66 60 53 45 39 34 38 48 56 60 64 66 65 64 56 44 36 32 30 32 36 38 39 40 41 41 41 40 37 33 31 30 32 33 34 35 37
68 71 69 68 70 76 84 85 84 83 73 58 46 38 37 40 43 50 54 49 52 65 72 72 71 70 66 62 63 66 68 70 71 71 70 67 64 62 55 50 50 48 47 54 59 64 75 79 76 80 86 84 77 72 73 80 84 83 79 76 72 67 59 51 42 34 34 47 59 61 63 64 62 59 52 43 38 36 36 39 43 45 42 38 39 40 36 29 23 18 16 18 19 20 22 24 26
63 68 68 68 73 81 87 87 88 87 79 67 57 50 47 48 56 67 69 65 67 74 77 78 76 72 69 68 70 74 77 77 75 75 75 73 73 76 72 62 55 48 44 47 53 60 71 79 78 80 87 89 81 73 74 80 83 81 78 77 76 73 66 55 44 36 34 42 56 64 65 64 60 56 52 48 46 44 44 46 50 54 50 38 31 29 22 16 14 14 15 15 15 15 16 16 17
Wind_Speed
28 28 28 28 29 29 29 29 29 29 29 29 28 28 28 28 28 29 29 29 28 26 26 28 28 27 27 27 27 26 25 24 23 22 22 22 22 21 21 20 20 20 19 19 19 19 19 19 18 18 20 22 23 23 24 24 25 25 25 25 23 20 20 19 18 18 17 17 17 17 15 14 13 13 14 15 15 14 12 10 8 7 7 7 8 9 8 8 8 8 8 9 11 12 13 13 13
28 29 29 29 29 29 30 29 30 30 29 30 30 29 29 29 30 31 30 30 29 27 27 28 29 28 28 28 28 26 25 25 24 24 23 22 21 21 22 22 21 21 21 20 20 20 19 19 19 20 21 22 23 24 25 26 27 26 25 25 23 21 20 20 19 18 18 18 18 17 16 14 13 13 14 15 15 14 12 10 8 7 6 6 7 7 8 8 8 8 9 10 11 12 12 13 13
29 29 29 30 30 30 30 30 30 30 29 31 31 31 31 31 32 32 32 31 30 28 27 28 29 29 28 28 28 27 26 26 26 25 24 22 22 22 22 23 23 23 23 22 22 21 20 20 21 22 22 23 24 25 27 27 29 28 26 25 23 21 20 20 20 19 18 18 18 18 16 14 13 13 13 14 15 14 13 11 9 7 7 6 6 6 7 8 8 9 9 10 11 12 12 12 12
28 28 29 29 30 30 30 29 29 29 30 31 30 31 32 31 32 33 33 33 31 29 28 28 30 30 29 28 28 27 27 27 27 26 24 24 23 23 24 24 25 25 24 23 22 21 21 22 23 23 23 24 25 27 28 29 29 27 25 24 22 21 20 20 20 19 19 19 19 18 17 15 14 13 13 14 15 15 13 12 10 9 8 6 5 6 7 8 9 9 10 10 11 12 12 12 12
28 28 28 29 29 29 29 29 28 28 29 30 30 31 32 32 32 33 34 34 32 29 28 29 30 30 29 29 28 28 28 27 27 27 26 26 25 26 26 26 26 25 23 22 21 21 22 23 23 23 24 25 27 28 29 29 29 26 23 22 21 20 20 20 20 20 20 20 20 18 17 16 14 13 13 14 15 15 14 13 11 10 9 7 6 5 6 8 9 9 9 10 11 11 11 11 12
28 28 28 28 28 28 28 28 27 28 28 29 29 30 32 33 32 33 33 34 32 29 29 30 30 31 30 30 29 28 28 28 28 28 27 27 28 28 28 27 25 23 22 21 21 22 23 24 25 25 26 27 28 29 29 29 28 24 21 21 21 20 20 20 20 21 21 21 20 19 18 17 16 14 14 15 15 15 14 13 11 10 9 8 7 6 6 7 8 9 9 10 10 10 10 11 11
28 28 28 28 28 27 27 26 26 27 27 29 30 30 32 32 32 32 32 33 31 30 30 31 30 31 31 30 29 29 29 29 29 29 29 29 29 28 27 25 24 22 22 22 23 24 25 26 26 27 27 28 28 29 29 28 26 23 21 21 21 20 20 20 21 21 22 22 20 19 18 17 17 15 14 15 16 15 14 13 12 10 9 9 8 7 7 7 7 8 9 10 10 10 10 10 10
29 28 28 28 28 27 26 26 25 26 27 28 29 30 31 32 31 31 31 32 31 31 31 31 31 30 31 30 30 30 30 30 29 30 30 29 29 27 26 25 24 23 23 23 24 25 26 26 27 27 28 28 29 29 29 27 23 21 21 21 21 20 20 21 22 22 23 22 21 19 18 18 17 16 15 16 16 16 15 13 12 10 9 9 9 8 8 7 7 8 10 11 10 10 9 9 9
29 28 28 28 28 27 26 26 26 26 27 27 29 30 31 31 30 30 30 31 31 31 31 31 30 30 31 30 30 30 30 30 29 29 29 29 28 27 26 26 25 25 25 25 25 26 26 27 27 28 29 29 29 29 28 24 20 20 21 21 21 21 21 22 23 23 23 22 21 19 18 18 18 18 17 16 16 16 15 13 12 10 10 10 9 9 8 9 11 10 10 13 12 10 9 9 9
28 28 28 28 28 27 26 26 26 26 26 27 28 30 31 30 29 28 30 31 31 31 30 30 30 30 30 30 29 29 29 29 28 29 29 29 28 28 27 26 26 26 26 26 27 28 28 28 28 29 30 30 30 29 26 21 19 20 21 21 21 21 22 23 24 23 23 22 21 19 19 18 18 18 18 17 17 16 15 13 12 11 11 11 10 10 9 10 14 13 14 15 15 12 9 9 9
29 29 28 29 28 28 26 25 25 25 25 27 28 29 30 29 28 28 29 31 31 30 30 30 30 30 29 29 29 29 28 28 28 29 29 29 28 27 27 27 27 26 26 27 29 29 29 29 30 30 30 30 29 26 23 20 20 21 21 21 21 22 22 23 23 22 22 21 20 19 19 19 19 19 19 18 17 16 14 12 12 12 12 11 10 10 9 10 13 15 16 18 20 16 11 9 8
29 29 29 29 28 27 25 24 25 24 25 27 28 29 29 28 28 28 29 31 31 30 29 29 29 30 30 30 30 29 29 29 29 30 30 29 28 27 26 26 26 26 27 28 29 29 29 29 29 30 30 29 27 23 20 19 20 21 21 21 21 21 22 22 22 21 20 20 20 19 19 19 19 19 19 17 16 15 13 13 12 13 14 12 11 11 10 11 13 14 15 18 22 18 12 10 9
29 29 29 29 28 27 25 24 25 25 26 27 27 28 28 27 27 29 30 30 31 30 30 30 30 30 30 30 30 30 30 30 30 31 31 28 26 26 26 26 26 26 27 28 28 28 28 28 29 29 28 26 24 21 19 19 20 21 20 20 20 21 21 21 21 20 20 20 20 20 20 19 20 20 18 16 15 15 14 13 12 13 13 12 12 11 10 11 12 12 13 16 19 17 12 10 10
29 30 30 29 28 26 25 24 25 26 27 27 27 28 27 27 27 29 30 30 31 31 30 30 31 31 31 30 30 30 29 30 30 31 30 26 25 25 24 24 25 26 27 27 26 26 27 27 27 26 24 22 21 19 18 19 20 20 19 18 19 20 20 20 20 19 20 21 21 21 20 20 20 20 17 15 15 16 15 13 13 13 13 11 10 10 11 11 11 10 10 13 17 18 14 11 10
29 29 29 29 28 26 24 24 25 27 27 26 28 28 27 27 28 29 30 31 31 32 31 30 31 30 30 30 30 30 29 29 30 30 29 27 25 24 23 23 24 25 25 24 23 22 23 24 23 21 20 20 19 18 18 19 20 19 18 18 19 20 19 19 19 19 20 21 21 21 20 20 20 19 17 16 16 17 15 13 13 14 13 11 9 9 10 10 9 8 8 12 16 18 15 11 11
27 28 28 28 26 24 22 23 25 27 26 27 28 27 27 27 28 30 31 31 31 32 31 30 31 31 30 30 30 30 30 29 30 30 28 27 26 25 24 24 23 24 23 22 20 18 18 19 19 19 18 18 18 19 20 20 21 20 19 19 19 19 19 19 19 19 20 20 20 19 19 20 19 18 18 17 17 17 15 13 14 15 14 13 11 10 11 11 9 8 8 11 15 17 14 12 12
26 27 27 26 25 22 21 24 26 27 27 27 27 28 27 27 28 30 31 31 32 32 32 32 33 33 32 31 30 30 30 29 29 29 28 27 26 25 24 24 23 23 22 20 17 16 16 16 16 17 17 18 19 20 21 22 22 22 21 20 20 20 20 19 19 19 19 19 18 18 20 20 20 19 19 18 17 16 15 14 15 16 15 15 14 14 15 13 11 10 8 9 14 17 14 12 12
26 26 26 25 23 21 22 24 27 28 28 27 28 28 28 28 29 30 31 32 33 33 34 34 35 35 34 32 31 31 30 30 30 29 28 28 26 24 24 23 23 22 22 19 16 15 15 15 15 16 18 19 20 22 23 23 23 22 21 20 20 20 20 19 19 18 18 17 18 19 20 20 19 19 19 19 17 15 16 17 17 17 16 16 16 17 17 15 15 12 9 11 15 17 14 12 13
26 26 25 24 22 22 23 25 27 29 28 27 28 29 28 29 30 31 32 34 35 35 36 36 36 36 35 33 31 31 31 30 30 29 27 26 24 23 23 23 22 22 20 18 15 16 15 15 16 17 19 20 22 23 24 24 23 22 21 20 19 20 20 20 19 18 18 17 18 20 19 19 19 19 19 18 16 15 17 19 18 17 17 18 19 18 19 19 16 12 11 14 16 16 14 12 13
26 26 24 24 23 23 24 25 27 29 28 28 28 29 29 29 31 32 33 35 36 37 38 38 37 36 34 33 32 31 30 30 29 27 25 23 22 22 23 23 22 21 19 16 13 12 13 14 16 17 19 21 23 23 23 23 22 21 20 19 19 19 20 19 18 18 17 17 18 19 19 19 18 18 18 17 17 17 18 19 18 18 18 18 18 19 20 17 13 11 14 16 16 15 13 13 13
25 25 24 24 24 23 24 25 26 28 29 29 29 30 30 31 32 33 34 35 37 38 39 40 39 37 35 33 33 32 30 29 28 27 25 23 22 23 24 24 23 21 19 16 13 11 11 13 15 17 19 22 23 23 22 22 22 21 20 19 18 18 18 17 17 17 17 18 18 18 19 19 18 18 18 18 17 16 16 17 17 18 19 18 18 20 19 15 13 14 16 17 15 13 12 13 13
25 25 24 23 22 22 23 25 27 28 29 29 29 30 31 32 33 33 35 36 37 38 39 40 40 38 36 34 33 32 30 29 28 27 25 24 23 24 24 24 23 21 18 17 14 12 12 14 16 17 19 21 22 21 22 24 23 21 19 18 17 16 16 16 16 17 18 19 19 19 20 20 19 19 18 17 16 15 15 16 17 18 19 18 19 20 18 17 17 17 17 17 12 11 13 14 13
24 24 23 22 21 21 23 25 27 28 29 30 30 31 32 33 34 34 35 36 37 37 38 39 39 38 38 36 35 33 30 29 28 26 25 24 24 23 22 21 20 18 16 15 15 14 14 15 16 16 16 18 19 20 22 23 22 19 18 17 16 15 14 15 16 18 19 19 19 19 19 19 19 19 18 17 16 16 16 16 17 17 18 18 19 19 19 19 18 17 15 13 10 11 13 13 13
24 23 22 21 20 21 24 26 28 29 30 31 31 31 32 33 34 35 35 35 36 37 38 38 38 39 38 37 36 33 31 28 26 25 24 25 24 22 21 20 19 17 15 14 15 15 15 15 16 16 15 14 16 18 19 20 19 18 18 17 16 14 13 14 16 17 17 17 18 18 18 18 18 17 15 16 17 17 16 16 16 16 17 19 19 19 18 17 17 15 11 9 9 11 12 13 13
22 21 21 20 19 21 24 26 28 29 31 32 33 33 33 34 35 35 35 35 36 36 37 38 38 38 38 37 35 33 30 27 25 24 24 25 23 21 20 20 19 17 15 14 15 16 17 16 15 14 13 13 14 16 17 18 19 19 18 16 14 13 13 14 15 16 16 16 17 17 17 17 17 16 15 16 17 17 15 14 16 17 18 19 19 17 15 15 14 11 9 9 10 10 12 13 12
21 20 20 19 18 19 22 26 28 30 32 33 34 34 34 35 36 35 35 34 35 35 35 36 36 36 35 34 33 31 30 27 25 24 23 23 22 21 20 20 18 16 16 16 15 16 18 19 16 14 13 13 13 14 16 18 19 19 18 16 14 13 13 13 15 17 16 15 16 17 18 17 17 16 16 17 16 16 14 13 16 18 19 18 17 15 13 12 11 10 10 10 9 10 12 13 12
21 20 19 18 17 18 21 25 28 30 33 34 35 36 36 37 36 35 35 35 34 34 34 34 34 34 34 32 32 31 29 27 24 22 21 21 21 20 19 19 16 15 16 17 16 17 18 20 18 15 13 11 11 12 14 16 16 16 17 16 15 14 12 12 15 17 15 14 16 16 17 17 17 17 16 16 16 15 13 13 16 18 17 16 15 14 13 11 11 10 10 9 10 12 13 12 11
21 19 18 18 18 17 19 25 29 31 32 34 36 38 38 39 36 34 35 35 34 33 33 33 33 33 33 32 31 29 27 24 22 21 21 21 20 19 18 17 15 14 15 16 16 17 18 18 18 16 13 11 11 12 13 14 13 14 16 15 15 15 14 13 15 16 15 15 15 15 17 17 18 17 15 15 15 14 13 15 17 16 14 15 15 14 12 11 10 10 9 10 11 12 12 11 10
21 19 17 18 17 16 19 24 29 31 31 34 37 39 40 40 37 36 36 34 33 31 31 31 31 31 31 30 28 26 24 22 22 22 22 21 20 20 18 15 14 15 16 18 16 16 17 17 16 15 12 11 11 13 12 11 11 13 15 14 15 14 14 14 15 16 15 15 14 15 17 17 16 16 15 14 14 14 13 15 15 14 14 16 16 14 12 11 10 9 9 10 11 11 11 10 10
22 20 18 17 17 17 19 23 28 30 30 34 38 40 41 41 39 38 37 35 33 31 29 28 28 28 28 27 25 23 22 21 20 21 21 20 19 19 18 15 15 15 14 16 18 19 17 14 13 12 9 10 12 13 11 8 8 10 12 13 13 13 13 14 15 16 15 14 14 14 14 14 13 15 15 12 13 15 14 13 12 13 15 16 15 14 13 11 10 10 10 11 11 10 9 10 10
22 21 19 17 17 18 20 23 26 28 30 35 38 39 39 40 42 41 38 36 36 34 31 28 27 27 26 25 23 20 19 18 17 18 19 16 16 16 16 15 16 16 13 11 12 14 13 10 9 7 7 10 13 13 10 8 8 8 9 11 12 13 13 13 15 16 16 15 15 14 14 13 11 14 15 12 13 14 12 10 11 14 16 15 14 13 12 10 10 11 11 11 11 9 8 8 9
23 22 19 18 18 19 21 22 24 27 30 34 37 39 37 37 42 44 41 39 38 36 34 31 28 27 25 23 21 19 16 15 16 17 15 11 11 12 13 13 14 14 13 10 7 6 6 5 5 5 6 10 13 12 10 10 10 9 9 10 12 13 13 13 15 16 16 15 14 15 14 11 10 12 13 12 12 10 8 9 11 13 14 13 13 12 11 10 10 11 11 11 10 9 9 8 8
24 22 20 19 19 19 21 22 24 26 29 33 36 39 37 36 40 43 43 42 40 39 37 34 31 27 24 23 21 19 16 15 16 17 13 9 6 6 8 9 10 10 9 9 8 6 5 5 6 6 8 12 13 12 11 11 10 9 9 10 12 12 13 14 15 15 15 13 12 13 13 11 11 12 11 11 11 10 9 10 11 12 12 12 11 11 10 10 11 11 11 11 9 9 9 8 7
23 22 21 21 20 19 20 21 24 26 29 32 35 38 36 34 37 41 42 43 42 41 39 37 35 31 26 24 23 22 18 15 17 17 12 10 6 5 5 6 8 10 9 8 8 8 8 8 9 9 11 13 15 14 12 11 10 10 10 11 11 12 13 14 14 14 13 12 12 13 13 12 13 13 12 12 11 11 12 13 12 12 12 11 11 10 11 11 11 11 11 10 9 10 10 7 7
23 23 23 23 21 20 20 22 24 26 28 31 34 36 35 32 34 38 39 41 41 40 40 40 38 36 32 30 27 25 22 18 19 17 13 12 9 7 6 7 8 9 10 10 10 10 9 10 11 12 13 13 14 14 14 12 10 10 10 11 12 12 13 14 13 13 12 12 13 13 14 14 14 14 13 13 12 13 13 13 13 12 12 11 11 11 11 11 11 11 10 9 9 10 9 7 7
25 25 24 23 22 20 20 22 24 26 28 30 32 35 35 33 31 34 36 37 38 39 39 39 39 38 36 35 32 30 27 24 22 19 16 15 12 9 8 8 7 8 10 11 11 11 11 12 13 13 13 13 14 15 15 13 12 11 11 11 12 13 14 15 14 14 14 14 15 15 15 16 16 15 14 14 14 14 14 14 13 12 11 11 11 12 12 11 11 10 10 10 10 10 8 7 7
26 26 25 24 23 21 21 23 24 26 28 28 30 33 35 33 30 31 34 34 35 36 36 37 36 37 36 35 34 33 31 29 27 22 19 17 15 12 10 9 7 8 10 11 12 12 13 13 14 14 14 14 15 16 15 15 13 12 11 11 12 14 16 16 16 16 16 17 16 16 16 16 16 15 15 14 14 14 14 13 13 12 11 11 12 12 12 11 11 11 11 11 11 10 8 7 8
27 27 26 25 23 22 23 24 24 27 28 27 28 32 32 31 29 30 32 32 31 32 33 34 33 34 34 33 33 32 32 30 29 26 22 20 17 14 13 11 9 8 9 11 12 13 14 14 15 15 15 15 15 16 15 15 14 12 11 11 12 15 17 18 19 18 18 18 16 15 15 15 14 14 13 13 13 13 13 12 12 11 11 11 12 12 12 12 11 11 11 11 11 10 9 9 9
28 28 27 24 22 22 24 26 26 27 29 27 28 31 30 28 27 28 31 31 29 29 30 31 31 31 31 30 30 30 30 28 27 27 24 21 19 17 15 13 11 9 9 10 12 13 14 15 15 15 15 15 16 16 15 15 14 13 12 12 13 15 17 19 20 20 19 18 16 15 15 15 15 14 14 13 13 12 12 12 11 11 11 10 11 12 12 12 11 11 11 11 11 10 10 10 11
29 28 26 22 20 22 23 25 27 28 29 28 29 31 29 26 26 27 29 31 30 29 28 29 29 28 28 29 29 29 28 26 25 26 25 23 21 18 17 15 13 11 10 10 11 12 14 15 16 16 15 15 15 15 14 13 13 13 12 12 13 15 17 18 19 20 20 18 17 18 18 17 16 15 15 14 13 12 12 12 11 11 11 11 11 12 12 12 11 11 11 12 12 11 11 11 12
29 27 23 20 19 21 21 23 27 29 30 28 30 33 29 23 24 26 29 31 30 29 28 28 27 26 27 28 28 27 26 25 25 26 26 25 22 20 18 17 15 12 10 10 11 11 13 15 17 17 16 15 15 14 13 11 12 12 12 12 13 14 15 17 18 19 20 20 19 19 19 18 17 16 16 15 14 13 12 12 11 11 11 12 13 13 13 13 12 11 11 12 12 12 12 12 13
28 24 20 20 20 20 22 24 27 29 30 29 31 35 31 23 23 27 30 30 28 28 27 25 26 26 26 27 27 26 25 24 26 28 28 26 23 21 20 19 16 13 11 11 11 11 13 14 17 18 16 15 15 14 13 12 11 11 11 12 13 13 14 16 17 19 20 21 21 20 19 19 18 18 17 16 15 14 13 13 12 12 12 13 13 14 14 13 12 12 12 12 12 12 12 12 13
26 21 21 22 21 21 23 25 28 29 30 31 32 34 32 26 25 26 27 27 26 26 24 23 25 26 25 26 26 25 24 24 27 29 29 27 25 23 21 20 17 13 11 11 12 13 14 15 16 17 16 15 15 15 14 12 11 10 11 11 12 13 14 16 17 19 20 21 21 21 20 20 20 19 18 17 16 15 15 14 14 14 14 14 14 14 14 13 13 13 12 12 11 11 12 12 12
24 22 24 25 22 23 24 26 28 28 30 32 32 32 31 27 24 24 24 25 24 23 22 22 24 23 23 25 26 25 25 25 27 29 29 27 24 22 22 21 18 13 12 12 13 15 15 16 17 17 16 15 15 15 14 12 10 9 10 11 12 13 14 16 17 19 20 21 21 21 21 20 20 20 19 17 16 16 16 16 16 15 15 15 14 14 14 14 14 13 13 12 11 11 11 12 12
25 25 26 25 23 23 24 26 28 28 30 32 30 30 30 26 24 23 24 23 22 20 21 22 22 22 23 25 26 26 25 25 27 28 29 27 24 22 22 22 18 13 13 13 14 16 17 17 17 17 16 14 15 15 14 11 9 8 9 11 12 12 14 15 17 19 20 21 21 21 20 19 18 18 17 16 16 16 16 16 16 16 16 16 15 14 14 14 13 13 13 12 11 11 11 12 13
26 26 25 24 24 24 24 25 26 29 30 30 28 29 29 26 23 24 23 22 21 20 21 22 22 22 23 24 25 25 25 25 27 30 29 26 25 24 24 22 18 14 13 14 14 16 18 18 18 17 15 13 14 14 13 11 9 9 10 11 11 12 13 14 16 18 19 20 20 19 18 16 15 14 14 15 16 16 16 16 16 15 15 15 14 13 13 13 13 12 13 12 11 11 12 12 12
26 26 25 24 25 24 25 26 26 29 28 24 25 29 31 28 23 23 23 22 21 21 21 22 22 21 22 23 23 22 24 26 29 30 27 26 26 25 23 21 17 15 13 13 14 16 18 18 18 15 13 13 13 14 13 11 10 10 11 11 11 13 13 15 16 17 18 19 19 19 18 16 15 14 15 16 17 17 17 16 15 14 14 14 13 12 12 12 12 12 13 12 12 11 11 11 11
27 26 25 25 26 25 26 27 27 28 23 19 23 29 33 30 22 20 22 22 22 21 21 22 20 20 21 21 19 21 24 28 30 28 26 26 26 23 21 19 16 15 14 14 14 16 17 17 17 15 13 13 14 15 14 12 11 11 11 11 12 13 14 15 15 16 17 17 18 19 20 19 18 18 17 17 18 17 17 16 15 14 13 13 12 12 11 12 12 12 12 12 12 12 11 10 9
25 25 25 26 27 27 27 27 27 25 20 19 24 28 32 30 21 20 23 22 21 21 22 23 21 21 22 19 17 21 24 28 29 28 26 26 25 22 21 19 17 16 16 15 14 16 16 16 16 15 14 15 16 16 14 13 12 12 11 11 12 13 14 14 14 15 15 15 17 19 21 21 20 19 17 17 18 17 16 15 14 14 13 12 12 11 11 11 11 12 12 12 12 12 11 10 10
24 24 26 27 28 28 27 26 26 24 21 22 25 28 30 27 20 19 22 22 22 21 23 26 23 21 23 20 20 23 26 28 29 27 27 26 26 25 22 20 19 18 17 15 15 15 15 15 15 15 15 16 16 16 15 14 13 13 11 11 12 13 13 13 13 13 13 14 17 19 20 20 19 18 17 17 17 17 16 15 14 14 13 12 12 11 11 10 10 11 12 11 11 10 10 10 10
26 27 29 29 28 26 25 25 26 24 23 24 26 28 28 24 19 19 22 23 23 21 23 27 26 22 23 22 23 26 27 28 29 28 27 26 27 26 23 21 21 19 17 16 15 16 15 14 15 15 16 17 17 16 16 14 13 12 11 11 12 13 13 13 13 12 13 14 16 18 19 18 17 17 17 17 16 16 15 14 13 14 14 13 13 12 11 10 10 10 10 10 9 9 10 10 10
28 29 30 28 26 24 24 26 26 24 24 25 26 27 26 22 19 20 23 23 23 23 23 26 27 26 26 24 24 26 28 29 30 29 28 27 28 26 24 24 23 20 18 17 16 17 16 16 16 17 17 18 18 18 16 14 13 11 11 11 12 13 13 12 10 10 11 13 16 18 17 15 15 16 16 16 16 15 14 12 12 13 13 14 14 13 12 12 12 11 11 11 10 10 11 11 11
28 29 28 25 24 24 25 25 25 24 25 26 25 25 23 22 20 21 24 24 23 24 23 24 27 29 29 27 25 26 27 28 29 28 27 27 29 28 26 26 25 22 20 19 19 19 19 19 18 19 19 19 19 18 16 14 13 12 12 12 13 13 12 11 9 7 8 11 14 15 14 13 15 16 16 16 16 15 13 11 11 12 13 13 14 14 14 14 14 14 13 13 13 13 14 14 13
29 28 26 24 25 26 26 25 25 25 25 25 24 24 23 22 22 22 25 26 24 24 24 24 27 30 31 29 28 28 28 28 28 28 27 28 30 29 28 29 28 25 23 23 23 22 21 20 19 19 20 20 19 18 17 16 14 13 13 14 14 13 12 11 9 9 9 10 12 12 12 13 14 16 16 16 15 13 11 9 9 10 12 12 13 14 15 15 15 15 16 16 16 16 16 16 15
29 28 27 26 25 26 26 27 27 26 26 26 24 23 23 23 22 22 24 27 26 25 25 25 26 28 30 31 31 31 31 30 29 29 28 28 31 31 30 30 30 29 28 27 26 24 22 21 20 20 21 20 19 18 18 16 15 14 14 14 14 14 13 12 10 11 11 12 12 10 10 12 13 15 15 14 12 11 9 8 7 7 9 10 12 12 13 13 13 14 15 15 16 16 16 16 16
30 30 30 28 27 27 26 26 27 26 26 26 24 23 21 20 20 21 22 25 27 26 25 25 26 27 29 30 31 32 32 31 30 30 30 31 34 33 31 30 32 33 33 31 28 25 22 21 22 22 22 21 20 19 18 16 15 15 15 15 16 15 14 13 12 12 13 13 12 10 9 10 11 13 13 12 10 10 9 8 6 7 8 9 10 11 11 11 11 12 12 13 13 14 14 14 15
32 32 31 29 29 29 28 28 28 27 25 25 25 23 18 15 16 17 18 22 27 27 26 26 27 27 28 29 30 30 30 30 30 31 31 32 34 36 36 34 34 35 36 33 30 26 24 23 23 24 23 22 21 20 18 17 16 15 15 16 17 16 16 15 14 15 16 15 14 13 11 10 10 11 12 11 11 11 11 10 9 9 9 10 11 11 11 11 11 10 11 11 11 12 12 13 13
33 33 31 30 29 30 30 29 28 27 25 25 25 23 18 14 13 13 15 20 25 27 27 28 29 30 30 30 30 30 29 28 30 32 31 29 30 35 40 41 39 38 35 32 29 27 26 26 25 24 24 23 22 20 18 17 16 16 16 17 17 16 16 16 16 17 18 17 16 15 14 12 12 12 12 12 13 14 14 14 14 13 12 12 12 12 11 11 10 10 10 10 11 11 12 13 14
Wind_Direction
277 277 277 278 278 279 278 278 278 277 277 275 272 270 268 269 269 269 270 271 271 270 271 272 273 274 274 275 277 276 274 270 266 263 260 258 258 255 252 251 253 259 262 263 264 265 267 269 272 277 279 282 287 292 297 302 309 312 312 310 304 300 301 303 304 302 299 297 297 299 301 305 310 314 318 320 322 324 324 325 330 342 355 7 18 20 15 10 6 358 352 347 347 347 344 341 341
277 277 277 277 277 277 276 277 276 276 275 273 270 269 268 268 268 269 269 269 269 269 268 269 270 271 271 273 273 272 269 266 262 259 257 256 254 252 250 248 251 256 259 261 262 265 268 272 275 276 278 283 288 292 297 301 305 307 308 307 302 298 299 302 303 300 297 294 295 297 299 303 308 313 316 316 318 320 319 318 320 333 347 1 14 20 16 11 5 355 349 345 347 346 343 340 342
276 277 277 278 277 276 275 275 274 274 271 267 266 267 268 267 268 270 270 268 268 267 265 265 267 268 269 270 270 268 264 262 259 255 253 252 250 248 246 247 251 255 260 262 264 267 269 272 273 274 278 283 288 292 296 299 302 304 303 303 300 296 297 300 301 298 295 293 293 294 296 300 306 311 314 313 315 316 315 313 313 320 333 351 6 15 17 13 6 355 347 345 346 345 342 340 343
277 276 277 277 277 276 276 274 272 270 265 262 263 264 264 264 265 268 269 269 268 265 262 263 264 266 267 267 267 265 261 259 256 252 249 246 245 244 245 248 253 258 262 264 265 266 267 270 271 274 278 283 287 291 296 299 301 302 299 298 297 294 295 298 300 297 293 292 291 292 294 298 303 308 310 311 311 313 313 311 312 317 323 332 349 6 16 16 7 354 346 343 345 345 342 340 342
278 277 276 276 275 276 275 274 271 267 263 261 259 260 260 260 261 264 266 267 267 263 260 261 261 263 264 264 264 261 259 256 253 250 247 246 244 244 247 252 256 259 261 263 264 266 268 270 271 274 279 283 286 290 295 298 301 301 294 293 292 291 293 295 298 296 293 291 290 291 293 296 300 305 306 307 307 309 311 309 311 316 320 324 332 350 9 17 8 353 341 338 341 344 343 341 342
279 278 277 276 275 275 273 271 269 265 262 260 257 257 257 258 259 261 262 263 265 262 259 259 259 262 262 262 261 258 257 254 251 249 247 247 248 249 251 254 256 257 259 262 264 266 269 270 272 276 280 283 286 290 293 297 300 297 289 288 289 290 292 293 295 294 292 291 290 289 291 294 298 302 303 303 303 306 308 307 307 312 322 326 325 338 358 11 6 348 333 330 335 339 342 342 343
279 279 278 277 276 275 272 268 265 261 259 258 257 256 257 259 260 259 260 261 261 259 258 257 258 260 260 260 257 254 254 251 249 248 248 247 249 251 253 254 254 254 256 260 263 266 268 271 274 277 281 283 286 289 292 295 295 290 284 285 288 290 291 292 294 293 292 290 288 287 288 291 295 299 300 300 300 302 305 303 304 310 325 327 322 333 350 359 354 338 322 317 323 328 335 339 341
280 280 279 278 277 275 271 266 260 257 256 255 255 257 259 262 263 259 258 259 258 256 257 257 258 259 258 257 253 252 251 249 249 249 249 249 251 252 253 253 253 253 255 258 261 264 267 270 273 277 281 282 284 286 290 293 288 282 281 285 288 290 290 291 293 293 291 288 286 285 286 290 294 297 298 298 299 300 300 300 305 309 317 317 315 323 337 340 326 317 312 306 306 314 322 329 335
281 281 280 279 277 274 270 264 259 256 255 253 255 259 261 263 264 259 256 256 255 254 255 257 258 257 257 256 253 252 251 250 250 251 252 252 253 253 253 253 253 253 255 259 262 264 267 270 273 277 280 282 283 284 288 288 281 278 281 285 288 288 289 291 292 291 288 286 284 283 285 288 292 296 297 298 298 298 298 301 307 306 303 304 307 313 322 319 307 300 300 297 294 299 310 319 325
281 281 280 279 277 273 268 262 259 257 255 254 256 260 263 264 263 257 254 253 253 253 254 254 256 255 254 254 252 252 250 249 250 251 252 252 252 253 253 254 254 256 259 263 266 268 271 273 275 277 280 281 282 283 285 282 275 276 280 284 286 286 289 290 290 288 285 283 282 282 284 287 291 294 295 296 296 296 299 303 305 302 296 294 297 302 310 312 309 309 309 302 293 290 298 309 316
282 281 280 278 276 273 268 262 259 258 255 254 256 260 263 264 261 255 251 251 251 251 252 252 253 252 251 250 249 249 248 247 248 249 251 252 252 253 254 256 259 263 266 268 269 272 274 275 276 278 280 281 281 282 281 276 273 277 280 282 283 286 288 289 288 285 282 281 280 281 284 287 289 291 291 292 294 297 301 304 305 302 295 290 289 294 303 305 305 308 310 308 302 295 294 302 307
281 281 280 278 276 273 268 262 260 259 256 255 256 258 261 261 258 253 250 249 250 250 250 249 248 248 248 248 247 248 247 246 246 249 252 253 254 256 258 262 267 270 271 271 271 273 274 274 275 277 278 279 280 279 275 272 273 276 278 280 282 286 288 288 286 283 280 279 279 281 282 284 286 287 287 289 294 298 300 302 305 303 297 289 284 289 296 296 300 303 299 303 309 303 294 299 301
280 279 278 276 274 271 266 262 261 260 258 256 257 257 257 256 253 250 248 248 249 248 247 246 244 244 245 247 248 248 248 248 249 252 255 256 259 262 265 269 272 273 273 273 273 274 274 274 275 276 275 275 276 275 272 271 272 274 276 279 284 288 289 289 286 283 279 277 277 278 279 280 283 282 282 285 292 297 299 299 302 303 301 293 282 283 287 290 302 304 293 301 314 311 297 298 298
278 277 277 275 273 268 263 260 259 259 257 255 255 254 252 251 248 247 246 246 246 245 244 243 243 243 244 245 247 249 249 251 253 256 258 260 263 267 270 272 273 273 274 275 276 275 275 275 275 273 272 272 273 270 268 268 270 273 276 282 287 289 290 289 287 283 279 276 274 274 275 278 281 279 278 282 290 295 297 296 297 300 303 298 283 280 286 292 300 294 289 301 312 312 301 295 294
276 275 274 273 270 266 261 257 258 258 254 252 253 251 249 247 245 243 243 243 243 243 242 240 241 240 241 242 244 246 248 251 253 256 259 262 266 269 272 273 273 274 277 281 284 282 277 274 273 272 271 269 266 265 265 266 269 272 278 283 287 290 290 289 287 283 279 275 273 273 274 278 281 278 276 280 289 292 292 291 292 298 300 298 290 287 290 295 297 283 280 295 306 308 297 288 288
274 273 271 269 267 263 258 254 256 256 251 249 250 248 246 243 242 240 241 241 240 241 240 237 237 237 236 238 240 242 245 248 252 256 259 264 268 270 272 273 273 276 281 289 294 291 282 274 271 270 269 265 261 261 261 263 267 271 276 280 284 287 289 288 286 284 280 276 275 273 274 278 278 277 277 280 288 289 286 288 292 296 294 292 291 289 292 292 291 284 278 291 302 301 286 279 279
271 270 267 265 263 259 254 251 254 253 248 247 247 245 243 240 239 238 238 238 236 237 236 234 235 235 234 235 238 241 244 247 251 255 260 264 266 269 271 273 274 277 282 289 295 293 285 277 272 269 266 261 257 257 258 261 265 270 274 277 282 286 288 288 286 283 279 277 274 271 273 276 273 272 275 280 284 283 282 287 291 292 290 289 287 283 287 280 278 284 276 283 295 291 277 267 269
269 267 264 262 260 256 251 249 252 252 248 246 244 244 241 239 237 236 236 236 233 232 233 233 234 235 236 235 237 240 244 247 250 254 258 261 264 269 273 274 275 277 281 285 290 291 286 278 269 263 257 255 256 256 257 259 263 267 271 276 282 287 289 288 286 282 278 275 270 268 270 270 268 267 271 276 278 276 279 285 286 287 285 285 283 282 285 276 276 278 262 274 288 283 270 260 262
267 265 262 260 256 251 248 247 250 251 249 246 244 243 240 237 236 235 234 233 232 230 231 233 233 235 236 237 239 241 244 247 250 254 257 262 267 272 275 275 274 276 278 279 283 286 283 276 267 259 253 253 254 254 255 257 260 266 271 277 284 288 289 288 285 281 278 274 270 268 267 265 265 265 269 272 273 275 281 284 283 285 284 281 281 281 283 280 277 268 262 277 281 274 265 258 258
264 262 259 256 252 248 247 246 248 251 248 245 243 241 238 235 236 236 234 233 233 232 231 233 233 233 234 236 238 241 245 248 251 255 261 267 272 274 276 276 274 275 274 270 272 274 271 269 268 263 260 258 256 255 255 256 260 266 271 277 283 287 288 287 283 279 276 273 271 270 268 264 262 263 266 269 274 279 281 281 279 280 281 280 280 279 280 279 269 260 272 280 272 265 262 256 255
261 258 256 254 252 249 247 243 244 248 247 243 241 239 238 236 235 235 235 235 236 236 236 235 235 234 235 237 240 243 247 250 255 260 267 273 275 274 275 277 276 276 270 261 260 263 261 264 265 264 262 261 260 260 261 261 262 265 270 276 282 287 289 288 282 277 274 271 269 268 267 264 261 263 267 271 275 277 278 277 274 275 278 279 278 278 277 268 258 260 270 274 267 260 257 256 256
259 256 255 254 252 248 245 239 241 246 244 243 240 237 237 237 235 233 234 235 237 238 239 239 239 239 240 242 245 248 251 255 260 265 271 275 274 274 276 279 279 275 266 255 256 266 270 269 267 269 269 263 258 260 264 266 265 265 270 276 282 285 286 284 280 276 273 271 269 266 265 265 262 263 267 271 271 272 275 275 272 273 276 276 276 275 268 259 264 272 272 270 263 251 254 259 258
258 256 255 253 248 241 238 236 239 243 241 241 239 235 235 237 234 232 233 235 237 239 241 242 242 243 244 246 249 252 255 259 264 268 271 273 273 275 278 278 274 270 264 254 253 262 269 271 270 274 278 269 257 259 266 267 263 264 270 276 279 280 280 278 276 274 273 272 270 268 265 265 265 264 266 267 265 268 272 273 272 271 271 273 274 272 264 260 272 279 272 262 252 250 256 260 261
257 257 255 252 244 235 237 235 234 238 237 239 239 234 235 236 234 233 233 234 236 239 242 243 244 245 247 250 253 255 259 263 267 271 273 275 275 276 277 273 267 267 269 262 255 255 262 272 272 270 276 273 262 262 266 265 265 267 271 273 275 275 275 275 274 273 272 271 270 268 265 265 267 268 266 263 264 266 268 270 270 267 269 273 274 274 269 265 268 270 261 252 252 256 260 262 263
259 258 256 252 244 238 240 233 228 233 234 237 238 235 236 235 233 233 234 234 236 239 241 244 246 247 250 252 255 258 262 266 272 277 280 278 276 275 275 271 266 268 272 267 260 256 259 271 274 271 274 273 266 265 266 268 268 267 266 266 269 269 268 270 273 271 266 264 268 267 265 267 269 269 270 269 268 266 265 268 268 267 270 272 272 271 269 263 257 252 249 254 259 259 260 260 259
260 258 255 252 244 238 239 230 225 230 232 235 234 234 238 236 233 233 234 235 237 239 240 243 246 249 251 253 256 260 264 270 277 284 284 281 275 273 273 271 266 261 261 260 257 254 257 266 274 278 277 274 272 271 269 270 267 262 260 257 258 261 263 267 272 270 263 261 265 262 261 266 269 270 273 273 269 263 261 265 268 270 269 266 264 260 255 250 242 244 252 259 263 260 259 257 257
259 257 254 251 243 234 232 227 226 229 230 233 232 233 238 239 234 232 234 236 238 240 242 245 247 250 252 255 258 262 267 274 282 285 284 282 278 271 271 273 269 257 253 253 250 249 253 260 266 271 272 271 274 277 276 274 269 260 255 253 254 256 257 263 268 268 264 262 261 259 259 263 271 274 273 272 270 264 259 260 265 267 265 257 251 246 240 238 239 249 259 263 262 259 258 259 258
260 257 252 250 244 232 226 223 225 229 228 231 232 231 236 240 236 232 234 236 238 241 243 246 249 251 254 257 260 264 269 276 281 284 285 285 280 273 272 275 277 270 261 256 249 245 249 255 256 252 252 258 272 287 284 275 269 257 250 250 252 253 252 254 259 259 259 258 255 258 263 266 273 274 268 269 273 271 262 257 257 254 249 245 240 236 233 236 245 253 260 261 259 259 261 262 258
262 257 249 246 244 232 224 220 222 226 227 229 232 230 233 237 238 235 234 234 236 240 243 247 250 252 255 258 262 266 271 275 279 285 288 286 279 274 275 274 276 278 266 258 250 241 242 248 244 235 237 252 270 285 280 269 267 258 250 245 243 245 245 246 248 249 252 254 254 261 266 267 271 268 265 269 272 273 265 252 245 237 232 234 234 233 234 240 248 251 255 255 256 259 262 263 259
260 257 250 243 241 232 224 220 220 223 224 228 232 231 230 233 237 237 235 234 234 237 241 246 250 253 257 260 263 267 271 275 282 289 291 287 280 276 278 276 273 274 264 252 242 236 236 231 223 222 235 257 264 268 271 271 264 249 243 239 239 242 242 241 244 247 249 253 256 260 262 264 271 268 261 260 261 263 257 239 227 223 226 230 232 236 239 241 244 246 248 249 251 255 261 264 260
257 256 253 245 238 233 227 222 220 221 223 227 232 233 230 230 236 238 237 237 236 236 238 242 247 253 257 260 261 264 268 276 286 293 292 287 279 274 275 273 269 269 266 256 234 223 220 211 213 226 247 265 264 259 264 275 266 245 238 237 240 247 245 244 247 251 254 256 254 253 255 258 263 259 246 240 249 249 237 223 217 220 225 230 235 241 243 242 242 243 243 245 247 250 256 264 264
256 254 252 246 237 232 232 227 223 222 224 227 232 235 230 229 235 238 238 238 238 237 237 240 244 249 253 255 255 257 264 276 288 292 287 276 268 267 269 268 268 269 270 273 263 227 212 214 235 256 265 274 271 258 251 258 265 260 247 239 241 247 248 249 252 258 261 260 254 247 247 244 242 242 234 231 238 228 214 220 219 219 224 231 238 243 244 242 242 243 242 244 248 249 252 261 265
257 255 248 242 236 230 232 233 229 226 226 228 232 236 232 228 233 237 239 240 241 241 241 241 243 245 246 248 248 251 262 277 287 289 278 254 243 249 260 265 267 271 274 277 279 275 268 260 264 273 276 276 271 261 247 242 250 251 241 238 241 245 250 252 256 261 263 258 246 234 231 231 234 236 231 231 227 208 213 228 223 222 228 235 242 244 242 241 241 242 242 244 248 251 253 257 257
257 253 244 238 234 228 227 233 234 230 229 230 233 236 235 229 231 236 239 240 242 243 244 245 245 245 243 244 246 250 261 278 288 285 263 235 214 196 218 243 254 262 266 264 262 261 262 263 267 269 268 268 266 264 258 249 245 242 237 238 242 248 253 256 257 259 259 246 229 226 230 235 239 238 234 233 226 212 217 227 227 230 235 238 242 241 239 239 239 241 242 243 244 248 251 251 247
254 248 244 240 237 232 226 229 234 233 232 233 234 237 237 233 231 235 238 240 242 243 244 245 246 247 245 245 248 252 260 273 284 275 246 228 214 193 204 223 240 251 254 254 250 247 247 252 256 255 254 256 260 263 265 263 257 249 245 243 244 250 256 260 257 254 250 239 231 234 242 244 244 244 238 231 227 222 223 228 231 234 236 237 237 236 237 238 238 237 238 239 241 246 248 245 244
250 245 243 242 239 236 231 230 234 236 235 235 236 238 239 236 233 236 238 239 242 243 244 245 246 248 249 250 251 254 259 266 276 265 234 226 221 205 207 216 227 240 244 245 244 241 238 240 243 243 244 245 248 255 260 261 260 256 254 249 245 245 252 259 258 252 246 243 242 246 250 252 249 246 239 232 229 228 228 229 229 230 230 230 231 232 234 233 232 233 234 236 240 244 246 245 247
244 243 243 244 241 238 236 234 235 239 239 238 239 240 241 240 237 239 241 240 241 243 245 246 248 251 252 253 253 254 257 261 268 258 232 227 226 217 217 215 216 227 235 238 238 236 234 235 237 237 239 240 242 246 250 253 255 255 256 253 248 243 245 252 255 252 248 248 250 252 253 252 248 242 237 232 228 225 223 221 220 220 220 221 224 227 227 226 227 231 234 236 240 242 244 248 248
242 242 243 245 246 243 239 238 237 239 241 242 243 243 244 245 243 244 246 245 243 244 245 247 249 250 251 253 252 252 254 256 260 253 233 226 228 225 226 221 212 216 227 233 235 236 234 235 237 237 237 239 240 240 240 244 248 251 253 248 245 243 244 249 252 252 253 254 255 252 247 243 239 237 233 227 221 216 213 212 212 213 215 217 220 222 223 225 228 232 237 239 242 243 243 247 245
240 241 243 247 251 250 244 239 237 239 241 242 245 247 246 246 246 247 249 248 246 244 245 246 246 247 248 249 249 249 251 251 252 245 230 224 228 229 232 228 215 211 220 228 233 237 237 238 239 240 239 240 241 240 237 238 241 247 249 244 239 238 241 245 248 251 255 256 251 242 237 234 233 230 226 219 214 212 210 211 213 215 217 219 222 224 227 230 233 236 238 240 242 244 244 245 243
238 240 244 247 249 250 248 243 239 239 241 241 244 248 247 245 246 247 248 248 246 244 243 244 244 244 245 244 243 243 244 245 245 238 226 224 228 230 235 233 220 214 222 228 233 239 241 242 242 241 241 241 242 241 239 237 239 243 245 243 240 238 238 241 244 248 251 249 240 233 232 232 230 227 222 218 215 214 215 216 218 220 222 226 230 231 232 235 238 238 239 241 242 244 244 242 242
237 240 244 248 247 247 245 243 240 238 240 241 242 246 246 243 243 243 246 246 245 244 242 243 245 244 243 241 241 241 239 236 235 230 223 223 227 229 233 233 226 221 228 236 238 242 244 243 242 240 240 241 241 240 242 241 241 245 245 245 244 242 242 242 242 244 244 240 235 232 232 231 229 225 220 218 216 217 220 223 226 227 228 232 235 235 237 238 239 240 242 243 245 245 244 242 242
237 240 244 244 243 242 240 239 239 237 238 240 241 245 243 238 238 241 244 246 244 243 243 242 243 243 241 241 243 242 237 231 230 225 220 220 223 226 229 233 230 225 233 244 246 248 248 246 244 239 239 242 241 240 242 243 246 249 250 251 250 249 247 245 244 242 241 239 237 235 234 232 229 226 222 220 220 222 227 232 236 237 237 238 239 239 240 240 240 242 244 246 247 248 248 247 245
237 238 240 240 237 237 238 238 239 237 237 240 241 245 244 236 237 242 245 247 245 243 242 240 240 241 240 240 241 239 233 230 230 227 222 220 222 225 228 231 230 227 237 248 254 257 256 252 247 242 241 243 242 241 241 243 247 250 253 254 253 252 251 250 248 245 243 242 242 240 237 234 230 228 226 226 228 231 236 240 243 244 244 244 244 243 243 241 240 240 243 246 248 248 248 250 250
235 234 236 239 238 237 238 239 240 238 236 239 242 247 247 238 236 243 245 246 247 244 241 238 238 240 239 238 238 234 229 228 229 228 225 222 225 229 230 230 229 229 240 252 261 266 261 255 251 246 244 244 242 240 239 239 241 246 250 250 249 250 250 250 249 248 247 245 244 242 238 234 230 228 230 232 236 239 242 245 247 248 248 246 245 245 244 241 239 238 239 241 245 247 246 249 251
231 233 236 240 241 240 241 242 243 241 238 239 244 250 253 245 236 240 244 246 247 246 241 236 235 239 240 237 234 231 227 225 225 226 224 222 225 230 229 228 228 230 243 258 269 270 262 256 253 248 245 242 240 238 236 233 233 239 245 246 247 249 250 251 251 250 249 247 244 241 236 232 229 229 232 236 240 243 245 246 247 247 245 244 242 241 242 240 236 234 233 232 233 237 238 242 247
231 235 238 241 243 243 245 247 247 247 244 242 246 253 257 251 239 237 242 245 247 245 240 238 238 241 241 236 234 230 225 222 222 223 222 221 224 227 228 228 227 231 246 261 271 270 264 259 255 249 244 240 239 238 234 228 226 232 240 245 250 253 255 254 253 251 249 246 242 236 230 228 232 237 242 246 249 248 247 245 243 241 240 239 237 235 237 238 235 229 228 227 225 226 228 230 236
232 236 239 241 243 245 247 250 250 251 251 249 250 254 257 253 242 239 241 240 243 243 240 241 241 238 236 235 232 226 221 219 219 220 220 222 225 228 230 229 227 232 246 261 269 270 268 262 254 246 241 239 239 237 232 224 222 230 240 248 254 256 257 255 253 251 247 244 239 232 228 231 242 252 254 253 253 250 246 242 240 238 236 235 234 232 232 235 236 232 229 228 224 223 226 227 230
233 236 240 243 246 246 248 250 251 255 259 256 250 252 255 254 246 242 242 238 239 241 239 236 229 223 229 233 228 219 217 217 218 218 219 223 227 230 234 231 228 235 246 258 267 272 271 262 249 241 238 238 238 235 229 221 222 231 238 247 253 253 253 251 249 248 245 241 236 233 234 240 251 257 255 250 247 244 241 238 236 234 233 232 231 231 232 234 236 235 234 232 228 227 228 231 235
237 239 243 246 249 249 249 252 254 258 262 257 250 251 254 255 247 241 241 238 235 237 235 226 215 217 225 229 223 215 215 218 218 219 220 223 226 228 231 232 231 237 246 255 266 274 272 258 243 237 235 236 237 233 226 219 220 226 232 241 247 246 246 245 244 243 241 236 235 237 241 246 251 252 248 242 236 234 233 231 231 231 230 229 228 228 229 233 236 237 237 235 232 232 231 234 240
241 242 243 245 247 249 252 255 258 260 259 254 251 251 254 254 248 240 239 237 234 234 231 221 214 218 222 220 215 213 216 218 220 222 223 227 228 224 227 234 234 238 246 255 266 274 270 253 238 233 232 233 234 229 222 216 217 222 228 236 240 241 243 244 245 243 237 234 235 239 243 245 245 242 239 234 228 226 226 226 226 228 229 228 227 226 226 229 233 236 238 236 233 233 234 236 239
236 237 239 242 245 249 253 255 257 258 256 253 252 253 255 254 248 239 235 233 231 233 229 221 219 219 216 215 213 213 218 221 223 228 231 236 237 228 229 239 239 240 248 254 264 270 265 249 234 230 229 230 230 225 217 212 216 225 232 238 243 245 246 247 247 244 237 233 235 240 244 243 237 232 231 230 228 225 223 224 224 226 227 226 225 225 223 221 222 226 230 233 233 233 234 233 233
233 236 239 243 247 251 252 253 254 256 257 257 255 256 257 254 247 239 235 232 230 232 229 221 219 216 211 212 215 217 221 223 226 230 232 238 241 235 237 245 246 245 249 253 261 264 257 244 232 228 228 229 228 222 213 211 219 229 236 243 247 247 246 243 243 244 239 235 236 241 243 238 230 227 225 227 230 230 229 228 228 228 228 227 225 225 223 219 218 221 225 231 235 237 237 236 236
232 237 241 243 246 249 251 253 256 257 258 258 258 260 260 253 245 239 238 235 230 231 231 219 213 212 210 211 215 219 224 226 229 232 231 235 241 243 246 251 252 249 250 253 256 255 251 242 234 230 229 230 229 222 213 212 218 227 234 239 242 242 240 236 235 245 247 242 241 243 240 231 227 228 227 227 229 233 236 237 235 233 231 229 228 228 228 228 229 232 236 240 243 245 246 246 246
231 234 239 241 243 246 249 252 255 257 259 259 260 261 260 254 246 240 238 235 230 231 231 222 213 212 213 214 215 218 223 227 231 233 232 234 240 245 250 253 253 249 248 249 250 251 252 247 240 236 234 233 231 224 216 215 220 228 234 236 237 235 233 234 242 254 258 253 251 249 242 235 234 236 236 233 229 227 226 227 231 232 229 227 228 230 232 235 238 241 244 247 249 250 251 251 251
232 232 235 238 241 246 250 253 256 259 260 261 262 261 259 257 251 244 239 234 229 228 230 226 219 216 218 220 220 222 225 229 233 235 235 236 241 243 246 250 251 249 248 248 248 250 254 253 246 242 240 238 236 229 222 223 229 236 241 240 239 236 233 237 247 256 259 260 260 256 247 244 244 244 242 235 228 223 215 209 214 226 230 230 229 231 233 236 240 244 247 249 250 251 252 252 251
234 233 234 237 240 244 249 253 257 259 259 258 259 258 255 255 252 246 240 233 228 226 229 229 225 223 223 225 226 229 232 236 239 240 238 238 240 240 239 246 249 249 249 247 247 250 254 254 248 242 241 241 238 234 229 231 238 241 241 240 238 237 238 242 247 249 250 253 256 252 245 245 249 248 245 238 234 233 228 222 223 232 240 240 236 233 234 235 238 241 245 248 250 251 252 252 252
234 235 236 237 241 245 248 252 256 257 258 258 258 257 254 251 247 243 237 231 227 226 227 229 229 229 229 231 234 235 238 242 244 246 246 244 246 242 236 241 247 247 248 247 247 249 251 251 246 241 241 241 239 236 233 235 241 240 237 236 234 233 234 237 241 240 240 241 243 242 241 244 248 249 248 248 249 249 250 250 251 252 251 246 239 234 233 233 235 239 244 249 253 255 256 257 256
235 237 238 238 240 244 246 249 253 254 256 258 259 260 258 250 243 239 230 224 224 225 227 229 230 232 233 235 238 240 244 247 249 254 256 257 259 248 234 235 243 244 246 248 246 248 249 247 244 241 241 242 241 239 236 238 240 239 237 235 232 229 229 230 231 232 233 233 233 235 240 245 248 249 249 253 257 260 262 263 263 262 256 247 242 238 237 236 236 240 248 254 259 262 263 264 263